TIME,DELAY(SENSOR),PRES,T(CTD),SAL,OXYGEN,RAWTEMP,T(OPTODE),TCPHASE,TURBIDITY,TURBIDITY_GAIN,FLUOR,BETA,CDOM,ED411.5,ED443.8,ED489.6,PAR,COMP,TILT,TILTY(TILT),CHECK
1340511564,6467,147.1199951171875000,6.2193999290466310,34.8185997009277340,350.4422912597656000,614.3469848632812000,6.2022080421447750,32.1258392333984400,16,3,50,117,61,2147639212,2147394925,2147280361,2148319034,2681,0,-4,43746
1340511627,6467,144.5000000000000000,6.2172999382019040,34.8174018859863300,349.3970947265625000,614.4180297851562000,6.1999278068542480,32.1615791320800800,16,3,50,118,62,2147637805,2147396954,2147279524,2148321069,2705,0,-4,4464
1340511688,6469,141.9499969482422000,6.2224998474121090,34.8147010803222660,347.7562866210937500,614.2252807617188000,6.2061200141906740,32.2124099731445300,18,3,50,118,62,2147639282,2147392690,2147278788,2148317645,2786,0,-4,6871
1340511751,6469,139.3500061035156200,6.2291998863220215,34.8138008117675800,346.8792114257812500,614.0737304687500000,6.2109889984130860,32.2390098571777340,16,3,50,117,62,2147636859,2147395240,2147277005,2148320899,2713,0,-4,53597
1340511812,6467,136.8600006103515600,6.2301998138427730,34.8134002685546900,346.7406921386719000,614.0432739257812000,6.2119660377502440,32.2430992126464840,16,3,50,116,63,2147639405,2147394756,2147278888,2148318897,2593,0,-4,34097
1340511875,6466,134.2799987792968800,6.2290000915527340,34.8138999938964840,346.4959106445312500,614.0477294921875000,6.2118258476257320,32.2512702941894500,16,3,50,117,62,2147638957,2147394563,2147278413,2148317471,2534,0,-4,7024
1340511936,6466,131.8000030517578000,6.2451000213623050,34.8105010986328100,346.3724975585937500,613.5875854492188000,6.2266058921813965,32.2474098205566400,16,3,50,118,62,2147638248,2147394861,2147280461,2148320045,2563,0,-4,21693
1340511999,6467,129.3699951171875000,6.2543001174926760,34.8120994567871100,348.9533996582031000,613.3189697265625000,6.2352352142333980,32.1573982238769500,16,3,50,117,62,2147638011,2147393741,2147279035,2148318637,2532,0,-4,32155
1340512060,6468,127.1200027465820300,6.2656002044677730,34.8083000183105500,349.6492004394531000,612.9954833984375000,6.2456259727478030,32.1287803649902340,16,3,50,116,62,2147636232,2147394477,2147278298,2148317704,2202,0,-4,58336
1340512146,6468,123.4700012207031200,6.2754001617431640,34.8026008605957000,349.8432922363281000,612.5924072265625000,6.2585740089416500,32.1155204772949200,11,3,50,117,62,2147637151,2147393480,2147278394,2148319990,1880,0,-4,48512
1340512207,6469,120.0500030517578100,6.2937998771667480,34.7989006042480500,351.2529907226562500,612.0722045898438000,6.2752780914306640,32.0601806640625000,16,3,52,118,62,2147640260,2147391702,2147278495,2148319976,1603,0,-4,30078
1340512270,6469,116.5299987792968800,6.3041000366210940,34.7961997985839840,350.2915954589844000,611.7589111328125000,6.2853388786315920,32.0864601135253900,16,3,50,120,62,2147639826,2147396172,2147278335,2148320758,1476,0,-4,2648
1340512331,6468,113.2200012207031200,6.3118000030517580,34.7944984436035160,351.4318847656250000,611.5186767578125000,6.2930507659912110,32.0449905395507800,16,3,52,122,62,2147638047,2147394536,2147278920,2148319510,1302,0,-4,55022
1340512394,6467,109.8499984741211000,6.3294000625610350,34.7919006347656250,352.4222106933594000,610.9984741210938000,6.3097500801086430,32.0038986206054700,16,3,52,122,62,2147638326,2147392904,2147277864,2148319976,860,0,-4,16777
1340512455,6467,106.6200027465820300,6.3422999382019040,34.7901992797851560,352.5750122070312500,610.5797729492188000,6.3231887817382810,31.9917201995849600,15,3,52,118,62,2147642847,2147394504,2147279926,2148320315,526,1,-4,18818
1340512518,6469,103.3300018310546900,6.3550000190734860,34.7871017456054700,352.3395996093750000,610.1497802734375000,6.3369898796081540,31.9916896820068360,16,3,53,118,62,2147638449,2147394793,2147278939,2148319450,3552,1,-4,16383
1340512579,6465,100.1399993896484400,6.3818998336791990,34.7843017578125000,352.3179931640625000,609.2758789062500000,6.3650298118591310,31.9774608612060550,31,3,54,124,62,2147636602,2147394152,2147281663,2148318637,3423,0,-4,59535
1340512642,6468,96.9100036621093800,6.3958001136779785,34.7793006896972660,351.9274902343750000,608.8787231445312000,6.3777709007263180,31.9836006164550780,16,3,54,118,61,2147640795,2147396996,2147277960,2148318564,3133,0,-4,4122
1340512703,6468,93.7399978637695300,6.4130001068115230,34.7779998779296900,350.8405151367187500,608.3834228515625000,6.3936610221862790,32.0106201171875000,16,3,56,116,62,2147638313,2147394198,2147279350,2148320237,2838,0,-4,51298
1340512766,6468,90.4000015258789000,6.4387998580932620,34.7766990661621100,351.2428894042969000,607.5853881835938000,6.4192500114440920,31.9839191436767580,16,3,59,121,62,2147638609,2147391185,2147277804,2148319272,2488,0,-4,58152
1340512827,6468,87.1500015258789000,6.4548001289367680,34.7759017944335940,352.7963867187500000,607.0734252929688000,6.4356708526611330,31.9244804382324220,16,3,62,125,62,2147641174,2147391487,2147275812,2148318577,2458,0,-4,2834
1340512890,6469,83.7699966430664000,6.4837999343872070,34.7755012512207000,355.6386108398437500,606.0355224609375000,6.4689388275146480,31.8149299621582030,14,3,66,136,62,2147640040,2147393462,2147278180,2148317736,2548,0,-4,57967
1340512952,6468,80.5100021362304700,6.4980998039245605,34.7748985290527340,357.8894042968750000,605.7222900390625000,6.4789772033691410,31.7375507354736330,14,3,72,136,62,2147639615,2147392369,2147278230,2148318459,2388,0,-4,2229
1340513016,6467,77.2699966430664000,6.5185999870300290,34.7727012634277340,359.1160888671875000,605.0488281250000000,6.5005612373352050,31.6868190765380860,14,3,76,138,62,2147637489,2147391963,2147281115,2148318463,2215,0,-4,9496
1340513077,6468,74.3499984741211000,6.5423002243041990,34.7709999084472660,359.4377136230469000,604.4102172851562000,6.5210189819335940,31.6658592224121100,14,3,80,138,62,2147637910,2147394294,2147278596,2148316447,2000,0,-4,17729
1340513140,6466,71.5400009155273400,6.5556998252868650,34.7697982788085940,359.3353881835937500,603.8557739257812000,6.5387778282165530,31.6596698760986330,15,3,82,141,62,2147639076,2147392516,2147276173,2148322052,2058,1,-4,15225
1340513201,6468,69.0100021362304700,6.5627999305725100,34.7682991027832000,358.3187866210937500,603.6870727539062000,6.5441842079162600,31.6893901824951170,15,3,81,136,62,2147640836,2147394289,2147278993,2148318875,1914,0,-4,6000
1340513264,6467,66.5899963378906200,6.5616998672485350,34.7685012817382800,357.3781127929687500,603.6500854492188000,6.5453658103942870,31.7188091278076170,14,3,78,136,62,2147641357,2147391213,2147278697,2148317937,1638,0,-4,5469
1340513325,6466,64.3199996948242200,6.6163997650146480,34.7622985839843750,355.8045043945312500,602.1649169921875000,6.5929260253906250,31.7440700531005860,14,3,84,140,62,2147636214,2147393535,2147279460,2148317453,1632,0,-4,40396
1340513414,6469,60.4500007629394500,6.6926999092102050,34.7584991455078100,355.1130981445312500,599.7764282226562000,6.6693611145019530,31.7262191772460940,15,3,94,141,62,2147640054,2147391990,2147276607,2148316136,1099,0,-4,381
1340513475,6470,56.8199996948242200,6.7926998138427730,34.7569007873535160,354.3019104003906000,596.6964721679688000,6.7678451538085940,31.7004203796386720,16,3,109,153,62,2147637247,2147388511,2147277951,2148317736,793,0,-4,14607
1340513538,6467,52.9399986267089840,6.9099998474121090,34.7625007629394500,349.8754882812500000,592.8098754882812000,6.8920001983642580,31.7790603637695300,15,3,96,148,63,2147633083,2147393581,2147276196,2148321727,360,1,-4,772
1340513599,6468,49.1199989318847660,7.0315999984741210,34.7617988586425800,345.9395141601562500,588.8250732421875000,7.0191378593444820,31.8420906066894530,15,3,85,134,62,2147633521,2147393279,2147277727,2148318120,3382,0,-4,13219
1340513685,6471,44.2099990844726560,7.2802000045776370,34.7585983276367200,343.3494873046875000,581.9854736328125000,7.2370262145996090,31.8142395019531250,15,3,113,153,64,2147636657,2147390989,2147276324,2148318934,2914,0,-4,17137
1340513746,6469,41.7200012207031250,7.5714001655578610,34.7565002441406250,345.2405090332031000,573.0086059570312000,7.5223560333251950,31.6037807464599600,20,3,172,176,64,2147638687,2147394257,2147273878,2148317576,3484,0,-4,16267
1340513809,6468,39.6899986267089840,7.8906998634338380,34.7500991821289060,346.8541870117187500,564.4240112304688000,7.7945480346679690,31.4110202789306640,22,3,205,195,62,2147636219,2147394317,2147272264,2148317517,2938,1,-4,2884
1340513870,6470,38.0099983215332000,7.9609999656677250,34.7521018981933600,349.5643005371094000,562.4285278320312000,7.8577289581298830,31.2902297973632800,27,3,235,214,62,2147638399,2147391514,2147273700,2148315634,2116,1,-4,22809
1340513956,6471,35.3600006103515600,8.5651998519897460,34.7261009216308600,348.9815063476562500,541.9221801757812000,8.5050373077392580,30.9824790954589840,30,3,316,244,62,2147637449,2147390737,2147274829,2148317266,1680,1,-5,11580
1340514017,6470,33.1199989318847660,8.7385997772216800,34.7398986816406250,351.1893920898437500,537.1500244140625000,8.6551837921142580,30.8364696502685550,39,3,395,293,62,2147639235,2147391785,2147275789,2148315949,643,2,-4,15270
1340514106,6471,29.5300006866455080,9.0193996429443360,34.7312011718750000,351.2206115722656000,525.6079711914062000,9.0175838470458980,30.6563606262207030,41,3,437,310,62,2147638412,2147390239,2147274111,2148314989,629,0,-4,38268
1340514167,6469,26.5200004577636720,9.3437995910644530,34.7252006530761700,351.8811950683594000,515.7781982421875000,9.3254203796386720,30.4841098785400400,44,3,508,360,64,2147639186,2147391464,2147271835,2148315003,242,1,-4,20761
1340514230,6470,23.8899993896484380,9.7642002105712890,34.7202987670898440,352.7287902832031000,502.4635009765625000,9.7412557601928710,30.2555103302001950,75,3,613,446,63,2147638472,2147388511,2147267597,2148314875,3167,0,-4,35660
1340514291,6470,22.2199993133544920,9.9961004257202150,34.7220001220703100,357.9717102050781000,494.7365112304687500,9.9820070266723630,29.9762001037597660,85,3,645,442,64,2147638710,2147393041,2147269403,2148312744,2992,2,-4,45360
1340514392,6469,20.2399997711181640,11.1399002075195310,34.7163009643554700,362.5650024414062500,457.3301086425781000,11.1418895721435550,29.2904605865478500,92,3,884,573,64,2147637864,2147388941,2147270335,2148315039,2052,1,-4,42048
1340514493,6472,18.2999992370605470,12.1042003631591800,34.7084007263183600,363.2821044921875000,427.7526855468750000,12.0531101226806640,28.8523406982421880,132,3,976,635,62,2147645101,2147393320,2147274559,2148316749,2606,0,-4,65048
1340514565,6472,15.5500001907348630,12.5223999023437500,34.7122001647949200,361.7294921875000000,413.1655883789062500,12.5008096694946290,28.6972007751464840,106,3,793,611,62,2147651158,2147402595,2147288392,2148319670,2141,1,-4,63244
1340514645,6470,10.6199998855590820,12.6371002197265620,34.7193984985351560,357.5459899902344000,408.9801940917969000,12.6290798187255860,28.7657909393310550,108,3,715,585,61,2147682527,2147435529,2147330276,2148335323,1639,4,-4,44586
1340514718,6469,4.8499999046325680,12.6366996765136720,34.7210006713867200,356.2284851074219000,408.7922973632812500,12.6348400115966800,28.8031501770019530,110,3,717,587,60,2147789050,2147549211,2147440767,2148394691,1234,-15,-4,39499
1340514788,6469,1.3700000047683716,0.0000000000000000,0.0000000000000000,355.7919921875000000,408.8695983886719000,12.6324701309204100,28.8176403045654300,110,3,730,536,60,2147895647,2147650404,2147528237,2148470856,725,16,-1,41960
